London City, United Kingdom

10:20 PM BST on July 26, 2017 (GMT +0100)
London City

Weather History for EGLC - March, 2013

Change the Weather History Date:

Friday, March 8, 2013

  Actual Average Record
Temperature  
Mean Temperature 46 °F -  
Max Temperature 48 °F 47 °F 60 °F (2014)
Min Temperature 44 °F 40 °F 30 °F (2011)
Degree Days  
Heating Degree Days 19    
Moisture  
Dew Point 46 °F    
Average Humidity 99    
Maximum Humidity 100    
Minimum Humidity 93    
Precipitation  
Precipitation 0.00 in - - ()
Sea Level Pressure  
Sea Level Pressure 29.47 in    
Wind  
Wind Speed 4 mph ()    
Max Wind Speed 8 mph    
Max Gust Speed -    
Visibility 0.9 miles    
Events Fog , Rain    
Averages and records for this station are not official NWS values.
T = Trace of Precipitation, MM = Missing Value Source: Averaged Metar Reports

Daily Weather History Graph

Daily Weather History Graph

Search for Another Location

Airport or City:

Trip Planner

Search our weather history database for the weather conditions in past years. The results will help you decide how hot, cold, wet, or windy it might be!

Date:

Astronomy

Mar. 08, 2013 Rise Set
Actual Time 6:29 AM GMT 5:52 PM GMT
Civil Twilight 5:56 AM GMT 6:25 PM GMT
Nautical Twilight 5:17 AM GMT 7:04 PM GMT
Astronomical Twilight 4:38 AM GMT 7:44 PM GMT
Moon 4:24 AM GMT (3/8) 2:11 PM GMT (3/8)
Length of Visible Light 12h 29m
Length of Day
11h 23m
Waning Crescent, 13% of the Moon is Illuminated
Mar 8
Waning Crescent
Mar 11
New
Mar 19
First Quarter
Mar 27
Full
Apr 3
Last Quarter

Hourly Weather History & Observations

Time (GMT) Temp. Windchill Dew Point Humidity Pressure Visibility Wind Dir Wind Speed Gust Speed Precip Events Conditions
12:20 AM 46.4 °F 43.5 °F 44.6 °F 93% 29.39 in - East 5.8 mph - N/A Rain Light Rain
12:50 AM 46.4 °F 44.3 °F 46.4 °F 100% 29.42 in 0.3 mi East 4.6 mph - N/A Rain Light Rain
1:20 AM 46.4 °F 43.5 °F 44.6 °F 93% 29.42 in 0.2 mi ENE 5.8 mph - N/A Rain Light Rain
1:50 AM 44.6 °F 42.2 °F 44.6 °F 100% 29.42 in 0.2 mi ENE 4.6 mph - N/A Rain Rain Showers
2:20 AM 46.4 °F 44.3 °F 44.6 °F 93% 29.42 in 0.1 mi ENE 4.6 mph - N/A Rain Light Rain Showers
2:50 AM 44.6 °F 41.4 °F 44.6 °F 100% 29.42 in 0.1 mi ENE 5.8 mph - N/A Fog Fog
3:20 AM 44.6 °F 42.2 °F 44.6 °F 100% 29.42 in 0.1 mi East 4.6 mph - N/A Fog Fog
3:50 AM 44.6 °F 42.2 °F 44.6 °F 100% 29.39 in 0.1 mi East 4.6 mph - N/A Fog Fog
4:20 AM 46.4 °F 43.5 °F 46.4 °F 100% 29.42 in 0.1 mi East 5.8 mph - N/A Fog Fog
4:50 AM 44.6 °F 42.2 °F 44.6 °F 100% 29.42 in 0.1 mi East 4.6 mph - N/A Fog Fog
5:20 AM 44.6 °F 41.4 °F 44.6 °F 100% 29.42 in 0.1 mi East 5.8 mph - N/A Fog Fog
5:50 AM 44.6 °F 41.4 °F 44.6 °F 100% 29.42 in 0.1 mi ENE 5.8 mph - N/A Fog Fog
6:20 AM 44.6 °F 40.7 °F 44.6 °F 100% 29.42 in 0.1 mi ENE 6.9 mph - N/A Fog Fog
6:50 AM 44.6 °F 40.2 °F 44.6 °F 100% 29.42 in 0.1 mi East 8.1 mph - N/A Fog Fog
7:20 AM 44.6 °F 40.2 °F 44.6 °F 100% 29.42 in 0.1 mi East 8.1 mph - N/A Fog Fog
7:50 AM 44.6 °F 41.4 °F 44.6 °F 100% 29.44 in 0.1 mi East 5.8 mph - N/A Fog Fog
8:20 AM 44.6 °F 40.7 °F 44.6 °F 100% 29.44 in 0.1 mi ENE 6.9 mph - N/A Fog Fog
8:50 AM 44.6 °F 41.4 °F 44.6 °F 100% 29.44 in 0.1 mi East 5.8 mph - N/A Fog Fog
9:20 AM 44.6 °F 41.4 °F 44.6 °F 100% 29.44 in 0.1 mi East 5.8 mph - N/A Fog Fog
9:50 AM 44.6 °F 40.7 °F 44.6 °F 100% 29.44 in 0.4 mi ENE 6.9 mph - N/A Fog , Rain Rain
10:20 AM 46.4 °F 42.9 °F 46.4 °F 100% 29.44 in 0.9 mi ENE 6.9 mph - N/A Rain Light Rain
10:50 AM 46.4 °F 44.3 °F 46.4 °F 100% 29.44 in 1.2 mi ENE 4.6 mph - N/A Rain Light Rain
11:20 AM 46.4 °F 42.9 °F 46.4 °F 100% 29.47 in 1.4 mi ENE 6.9 mph - N/A Rain Light Rain
11:50 AM 46.4 °F 44.3 °F 46.4 °F 100% 29.47 in 1.9 mi ENE 4.6 mph - N/A Rain Rain
12:20 PM 46.4 °F 45.2 °F 46.4 °F 100% 29.47 in 2.2 mi East 3.5 mph - N/A   Mostly Cloudy
12:50 PM 48.2 °F - 48.2 °F 100% 29.47 in 2.2 mi Calm Calm - N/A   Scattered Clouds
1:20 PM 48.2 °F - 48.2 °F 100% 29.47 in - Variable 3.5 mph - N/A Rain Light Rain
1:50 PM 48.2 °F - 48.2 °F 100% 29.47 in - Variable 2.3 mph - N/A Rain Light Rain
2:20 PM 48.2 °F - 48.2 °F 100% 29.47 in - Variable 3.5 mph - N/A Rain Light Rain
2:50 PM 48.2 °F - 48.2 °F 100% 29.47 in - North 3.5 mph - N/A Rain Light Rain
3:20 PM 48.2 °F - 48.2 °F 100% 29.47 in 2.8 mi North 3.5 mph - N/A Rain Rain
3:50 PM 48.2 °F - 48.2 °F 100% 29.47 in - Variable 3.5 mph - N/A Rain Light Rain
4:50 PM 48.2 °F - 48.2 °F 100% 29.50 in - North 3.5 mph - N/A Rain Light Rain
5:20 PM 48.2 °F - 48.2 °F 100% 29.50 in - North 3.5 mph - N/A Rain Light Rain
5:50 PM 48.2 °F - 48.2 °F 100% 29.50 in 2.5 mi Variable 2.3 mph - N/A Rain Light Rain
6:20 PM 48.2 °F - 48.2 °F 100% 29.53 in - North 2.3 mph - N/A Rain Rain
6:50 PM 48.2 °F - 48.2 °F 100% 29.53 in - Variable 2.3 mph - N/A Rain Rain
7:20 PM 48.2 °F - 48.2 °F 100% 29.53 in 2.5 mi Variable 2.3 mph - N/A Rain Light Rain
7:50 PM 48.2 °F - 46.4 °F 93% 29.53 in 2.5 mi Variable 2.3 mph - N/A Rain Light Rain
8:20 PM 48.2 °F - 46.4 °F 93% 29.53 in 1.9 mi North 3.5 mph - N/A Rain Light Rain
8:50 PM 46.4 °F 43.5 °F 46.4 °F 100% 29.53 in 1.6 mi NNW 5.8 mph - N/A Rain Light Rain
9:20 PM 46.4 °F 45.2 °F 46.4 °F 100% 29.53 in 1.6 mi NNW 3.5 mph - N/A Rain Light Rain
9:50 PM 46.4 °F - 46.4 °F 100% 29.53 in 1.1 mi NNW 2.3 mph - N/A Rain Rain
10:20 PM 46.4 °F 44.3 °F 46.4 °F 100% 29.53 in 1.3 mi NNW 4.6 mph - N/A Rain Rain
10:50 PM 46.4 °F - 46.4 °F 100% 29.56 in 1.1 mi NNW 2.3 mph - N/A Rain Light Rain
11:20 PM 46.4 °F 45.2 °F 44.6 °F 93% 29.56 in 1.2 mi NW 3.5 mph - N/A Rain Rain
11:50 PM 46.4 °F 43.5 °F 44.6 °F 93% 29.56 in 1.4 mi NW 5.8 mph - N/A Rain Rain